| time (UTC) | temp F | wind direction | speed MPH | gust MPH | rain 1hr in | rain 24hr in | rain mn in | humidity % | barometer mb |
| 20260902080040 | 78 | 0 | 0.0 | 3.0 | 0.00 | 0.00 | 0.00 | 69 | 1016.9 |
| 20260902075520 | 78 | 156 | 1.0 | 5.0 | 0.00 | 0.00 | 0.00 | 68 | 1016.9 |
| 20260902075021 | 78 | 163 | 1.0 | 5.0 | 0.00 | 0.00 | 0.00 | 68 | 1016.9 |
| 20260902074538 | 79 | 134 | 1.0 | 6.0 | 0.00 | 0.00 | 0.00 | 67 | 1017.0 |
| 20260902074018 | 79 | 140 | 2.0 | 6.0 | 0.00 | 0.00 | 0.00 | 67 | 1016.9 |
| 20260902073525 | 79 | 155 | 2.0 | 7.0 | 0.00 | 0.00 | 0.00 | 66 | 1017.0 |
| 20260902073041 | 79 | 150 | 3.0 | 7.0 | 0.00 | 0.00 | 0.00 | 66 | 1017.0 |
| 20260902072518 | 79 | 144 | 2.0 | 8.0 | 0.00 | 0.00 | 0.00 | 66 | 1017.0 |
| 20260902072018 | 80 | 153 | 3.0 | 9.0 | 0.00 | 0.00 | 0.00 | 66 | 1016.9 |
| 20260902071536 | 80 | 135 | 3.0 | 9.0 | 0.00 | 0.00 | 0.00 | 66 | 1017.0 |
| 20260902070047 | 80 | 154 | 3.0 | 8.0 | 0.00 | 0.00 | 0.00 | 65 | 1017.1 |
| 20260902065021 | 80 | 136 | 3.0 | 10.0 | 0.00 | 0.00 | 0.00 | 64 | 1017.0 |
| 20260902064541 | 80 | 147 | 3.0 | 10.0 | 0.00 | 0.00 | 0.00 | 64 | 1017.0 |
| 20260902064019 | 79 | 155 | 2.0 | 9.0 | 0.00 | 0.00 | 0.00 | 64 | 1017.0 |
| 20260902063516 | 79 | 155 | 2.0 | 8.0 | 0.00 | 0.00 | 0.00 | 64 | 1016.9 |
| 20260902063036 | 79 | 135 | 1.0 | 5.0 | 0.00 | 0.00 | 0.00 | 64 | 1016.9 |
| 20260902062520 | 78 | 105 | 1.0 | 4.0 | 0.00 | 0.00 | 0.00 | 64 | 1016.8 |
| 20260902062018 | 78 | 0 | 0.0 | 4.0 | 0.00 | 0.00 | 0.00 | 64 | 1016.8 |
| 20260902061546 | 79 | 0 | 0.0 | 2.0 | 0.00 | 0.00 | 0.00 | 63 | 1016.8 |
| 20260902061022 | 79 | 0 | 0.0 | 2.0 | 0.00 | 0.00 | 0.00 | 62 | 1016.9 |
| 20260902060524 | 80 | 0 | 0.0 | 4.0 | 0.00 | 0.00 | 0.00 | 61 | 1016.8 |
| 20260902060039 | 80 | 0 | 0.0 | 4.0 | 0.00 | 0.00 | 0.00 | 62 | 1016.8 |
| 20260902055523 | 80 | 144 | 0.0 | 3.0 | 0.00 | 0.00 | 0.00 | 62 | 1016.8 |
| 20260902055020 | 79 | 128 | 0.0 | 4.0 | 0.00 | 0.00 | 0.00 | 62 | 1016.7 |
| 20260902054538 | 79 | 0 | 0.0 | 4.0 | 0.00 | 0.00 | 0.00 | 62 | 1016.6 |
| 20260902053036 | 79 | 0 | 0.0 | 1.0 | 0.00 | 0.00 | 0.00 | 63 | 1016.4 |
| 20260902051538 | 79 | 0 | 0.0 | 1.0 | 0.00 | 0.00 | 0.00 | 62 | 1016.5 |
| 20260902051020 | 79 | 0 | 0.0 | 1.0 | 0.00 | 0.00 | 0.00 | 61 | 1016.4 |
| 20260902050520 | 79 | 0 | 0.0 | 1.0 | 0.00 | 0.00 | 0.00 | 61 | 1016.4 |
| 20260902050040 | 80 | 0 | 0.0 | 0.0 | 0.00 | 0.00 | 0.00 | 60 | 1016.5 |
| 20260902045522 | 80 | 0 | 0.0 | 0.0 | 0.00 | 0.00 | 0.00 | 60 | 1016.4 |
| 20260902045018 | 81 | 0 | 0.0 | 1.0 | 0.00 | 0.00 | 0.00 | 60 | 1016.5 |
| 20260902044537 | 81 | 0 | 0.0 | 1.0 | 0.00 | 0.00 | 0.00 | 60 | 1016.5 |
| 20260902043041 | 81 | 0 | 0.0 | 1.0 | 0.00 | 0.00 | 0.00 | 59 | 1016.6 |
| 20260902042518 | 82 | 0 | 0.0 | 3.0 | 0.00 | 0.00 | 0.00 | 58 | 1016.5 |
| 20260902042018 | 82 | 0 | 0.0 | 3.0 | 0.00 | 0.00 | 0.00 | 58 | 1016.4 |
| 20260902041549 | 82 | 0 | 0.0 | 3.0 | 0.00 | 0.00 | 0.00 | 58 | 1016.4 |
| 20260902041019 | 82 | 136 | 0.0 | 3.0 | 0.00 | 0.00 | 0.00 | 57 | 1016.4 |
| 20260902040519 | 82 | 129 | 1.0 | 5.0 | 0.00 | 0.00 | 0.00 | 58 | 1016.3 |
| 20260902040039 | 82 | 0 | 0.0 | 5.0 | 0.00 | 0.00 | 0.00 | 57 | 1016.4 |
| 20260902035522 | 82 | 132 | 0.0 | 4.0 | 0.00 | 0.00 | 0.00 | 58 | 1016.5 |
| 20260902035017 | 82 | 0 | 0.0 | 4.0 | 0.00 | 0.00 | 0.00 | 57 | 1016.4 |
| 20260902034537 | 82 | 135 | 0.0 | 4.0 | 0.00 | 0.00 | 0.00 | 58 | 1016.5 |
| 20260902033037 | 82 | 115 | 0.0 | 4.0 | 0.00 | 0.00 | 0.00 | 56 | 1016.4 |
| 20260902032519 | 83 | 0 | 0.0 | 4.0 | 0.00 | 0.00 | 0.00 | 56 | 1016.3 |
| 20260902031540 | 83 | 161 | 0.0 | 4.0 | 0.00 | 0.00 | 0.00 | 56 | 1016.3 |
| 20260902031018 | 83 | 121 | 1.0 | 4.0 | 0.00 | 0.00 | 0.00 | 55 | 1016.2 |
| 20260902030519 | 83 | 137 | 0.0 | 4.0 | 0.00 | 0.00 | 0.00 | 55 | 1016.1 |
| 20260902030039 | 83 | 0 | 0.0 | 4.0 | 0.00 | 0.00 | 0.00 | 55 | 1016.0 |
| 20260902025517 | 83 | 113 | 1.0 | 4.0 | 0.00 | 0.00 | 0.00 | 55 | 1016.0 |
| 20260902025017 | 83 | 0 | 0.0 | 4.0 | 0.00 | 0.00 | 0.00 | 54 | 1015.9 |
| 20260902024537 | 83 | 0 | 0.0 | 4.0 | 0.00 | 0.00 | 0.00 | 55 | 1015.8 |
| 20260902023035 | 83 | 0 | 0.0 | 3.0 | 0.00 | 0.00 | 0.00 | 55 | 1015.5 |
| 20260902022524 | 83 | 132 | 0.0 | 3.0 | 0.00 | 0.00 | 0.00 | 54 | 1015.5 |
| 20260902022019 | 83 | 0 | 0.0 | 1.0 | 0.00 | 0.00 | 0.00 | 54 | 1015.4 |
| 20260902021538 | 83 | 0 | 0.0 | 1.0 | 0.00 | 0.00 | 0.00 | 54 | 1015.4 |
| 20260902021019 | 83 | 0 | 0.0 | 1.0 | 0.00 | 0.00 | 0.00 | 54 | 1015.3 |
| 20260902020520 | 83 | 0 | 0.0 | 1.0 | 0.00 | 0.00 | 0.00 | 54 | 1015.3 |
| 20260902020049 | 84 | 0 | 0.0 | 1.0 | 0.00 | 0.00 | 0.00 | 53 | 1015.3 |
| 20260902015518 | 84 | 0 | 0.0 | 1.0 | 0.00 | 0.00 | 0.00 | 53 | 1015.2 |
| 20260902015018 | 84 | 0 | 0.0 | 0.0 | 0.00 | 0.00 | 0.00 | 52 | 1015.1 |
| 20260902014536 | 85 | 0 | 0.0 | 0.0 | 0.00 | 0.00 | 0.00 | 51 | 1015.2 |
| 20260902014020 | 85 | 0 | 0.0 | 1.0 | 0.00 | 0.00 | 0.00 | 51 | 1015.1 |
| 20260902013523 | 86 | 0 | 0.0 | 1.0 | 0.00 | 0.00 | 0.00 | 50 | 1015.0 |
| 20260902011540 | 89 | 0 | 1.0 | 4.0 | 0.00 | 0.00 | 0.00 | 46 | 1014.9 |
| 20260902005523 | 90 | 135 | 2.0 | 10.0 | 0.00 | 0.00 | 0.00 | 43 | 1014.5 |
| 20260902005019 | 91 | 132 | 2.0 | 7.0 | 0.00 | 0.00 | 0.00 | 42 | 1014.5 |
| 20260902004539 | 91 | 119 | 1.0 | 8.0 | 0.00 | 0.00 | 0.00 | 41 | 1014.6 |
| 20260902004029 | 92 | 146 | 3.0 | 10.0 | 0.00 | 0.00 | 0.00 | 41 | 1014.7 |
| 20260902003517 | 92 | 130 | 2.0 | 10.0 | 0.00 | 0.00 | 0.00 | 40 | 1014.5 |
| 20260902003039 | 92 | 147 | 2.0 | 9.0 | 0.00 | 0.00 | 0.00 | 40 | 1014.5 |
| 20260902000036 | 95 | 143 | 5.0 | 10.0 | 0.00 | 0.00 | 0.00 | 38 | 1014.6 |
| 20260901235520 | 95 | 146 | 4.0 | 9.0 | 0.00 | 0.00 | 0.00 | 38 | 1014.6 |
| 20260901235017 | 95 | 143 | 3.0 | 8.0 | 0.00 | 0.00 | 0.00 | 37 | 1014.6 |
| 20260901234540 | 96 | 132 | 2.0 | 8.0 | 0.00 | 0.00 | 0.00 | 37 | 1014.6 |
| 20260901234019 | 96 | 119 | 3.0 | 11.0 | 0.00 | 0.00 | 0.00 | 36 | 1014.8 |
| 20260901233519 | 97 | 110 | 2.0 | 12.0 | 0.00 | 0.00 | 0.00 | 36 | 1014.8 |
| 20260901233038 | 97 | 124 | 3.0 | 12.0 | 0.00 | 0.00 | 0.00 | 36 | 1014.9 |
| 20260901231020 | 97 | 151 | 3.0 | 10.0 | 0.00 | 0.00 | 0.00 | 36 | 1014.6 |
| 20260901230520 | 98 | 114 | 3.0 | 13.0 | 0.00 | 0.00 | 0.00 | 36 | 1014.7 |
| 20260901230050 | 98 | 167 | 5.0 | 13.0 | 0.00 | 0.00 | 0.00 | 36 | 1014.7 |
| 20260901225520 | 98 | 177 | 5.0 | 11.0 | 0.00 | 0.00 | 0.00 | 36 | 1014.7 |
| 20260901225017 | 98 | 159 | 4.0 | 11.0 | 0.00 | 0.00 | 0.00 | 35 | 1014.6 |
| 20260901224541 | 98 | 149 | 5.0 | 10.0 | 0.00 | 0.00 | 0.00 | 35 | 1014.7 |
| 20260901224019 | 99 | 158 | 4.0 | 8.0 | 0.00 | 0.00 | 0.00 | 34 | 1014.6 |
| 20260901223520 | 101 | 110 | 3.0 | 10.0 | 0.00 | 0.00 | 0.00 | 34 | 1014.7 |
| 20260901223100 | 101 | 154 | 2.0 | 10.0 | 0.00 | 0.00 | 0.00 | 34 | 1014.6 |
| 20260901222519 | 100 | 78 | 2.0 | 10.0 | 0.00 | 0.00 | 0.00 | 34 | 1014.6 |
| 20260901222020 | 101 | 123 | 2.0 | 10.0 | 0.00 | 0.00 | 0.00 | 34 | 1014.7 |
| 20260901221540 | 101 | 101 | 2.0 | 12.0 | 0.00 | 0.00 | 0.00 | 34 | 1014.5 |
| 20260901221018 | 100 | 0 | 3.0 | 14.0 | 0.00 | 0.00 | 0.00 | 35 | 1014.5 |
| 20260901220521 | 101 | 117 | 3.0 | 14.0 | 0.00 | 0.00 | 0.00 | 34 | 1014.5 |
| 20260901220048 | 102 | 111 | 3.0 | 14.0 | 0.00 | 0.00 | 0.00 | 34 | 1014.6 |
| 20260901215521 | 101 | 130 | 4.0 | 9.0 | 0.00 | 0.00 | 0.00 | 34 | 1014.7 |
| 20260901215019 | 99 | 182 | 1.0 | 14.0 | 0.00 | 0.00 | 0.00 | 32 | 1014.9 |
| 20260901214539 | 100 | 151 | 3.0 | 14.0 | 0.00 | 0.00 | 0.00 | 32 | 1014.9 |
| 20260901214021 | 98 | 156 | 2.0 | 10.0 | 0.00 | 0.00 | 0.00 | 33 | 1014.8 |
| 20260901213519 | 99 | 157 | 5.0 | 10.0 | 0.00 | 0.00 | 0.00 | 32 | 1014.9 |
| 20260901213036 | 98 | 78 | 0.0 | 9.0 | 0.00 | 0.00 | 0.00 | 34 | 1014.9 |
| 20260901212520 | 98 | 219 | 4.0 | 9.0 | 0.00 | 0.00 | 0.00 | 32 | 1014.9 |
| 20260901212028 | 99 | 161 | 3.0 | 9.0 | 0.00 | 0.00 | 0.00 | 32 | 1015.1 |
| 20260901211540 | 100 | 108 | 3.0 | 9.0 | 0.00 | 0.00 | 0.00 | 32 | 1015.1 |
| 20260901211020 | 101 | 196 | 2.0 | 10.0 | 0.00 | 0.00 | 0.00 | 32 | 1015.2 |
| 20260901210517 | 102 | 140 | 4.0 | 11.0 | 0.00 | 0.00 | 0.00 | 31 | 1015.3 |
| 20260901210046 | 101 | 196 | 3.0 | 15.0 | 0.00 | 0.00 | 0.00 | 32 | 1015.4 |
| 20260901205520 | 101 | 156 | 6.0 | 15.0 | 0.00 | 0.00 | 0.00 | 32 | 1015.4 |
| 20260901205018 | 101 | 165 | 4.0 | 8.0 | 0.00 | 0.00 | 0.00 | 32 | 1015.4 |
| 20260901204540 | 99 | 113 | 2.0 | 9.0 | 0.00 | 0.00 | 0.00 | 33 | 1015.5 |
| 20260901204020 | 98 | 120 | 4.0 | 10.0 | 0.00 | 0.00 | 0.00 | 34 | 1015.6 |
| 20260901203520 | 100 | 142 | 4.0 | 10.0 | 0.00 | 0.00 | 0.00 | 32 | 1015.5 |
| 20260901203045 | 100 | 149 | 1.0 | 9.0 | 0.00 | 0.00 | 0.00 | 33 | 1015.6 |
| 20260901202520 | 102 | 175 | 3.0 | 9.0 | 0.00 | 0.00 | 0.00 | 31 | 1015.6 |
| 20260901202019 | 103 | 94 | 3.0 | 9.0 | 0.00 | 0.00 | 0.00 | 30 | 1015.7 |
| 20260901201537 | 102 | 98 | 3.0 | 9.0 | 0.00 | 0.00 | 0.00 | 32 | 1015.7 |
| 20260901201020 | 99 | 64 | 2.0 | 6.0 | 0.00 | 0.00 | 0.00 | 34 | 1015.8 |
| 20260901200517 | 98 | 160 | 2.0 | 10.0 | 0.00 | 0.00 | 0.00 | 35 | 1015.9 |
| 20260901200047 | 100 | 236 | 2.0 | 12.0 | 0.00 | 0.00 | 0.00 | 32 | 1016.0 |
| 20260901195518 | 101 | 185 | 5.0 | 12.0 | 0.00 | 0.00 | 0.00 | 32 | 1016.0 |
| 20260901195019 | 101 | 194 | 2.0 | 9.0 | 0.00 | 0.00 | 0.00 | 33 | 1016.1 |
| 20260901194544 | 100 | 169 | 3.0 | 8.0 | 0.00 | 0.00 | 0.00 | 33 | 1016.1 |
| 20260901194020 | 99 | 209 | 2.0 | 9.0 | 0.00 | 0.00 | 0.00 | 34 | 1016.2 |
| 20260901193518 | 98 | 155 | 2.0 | 9.0 | 0.00 | 0.00 | 0.00 | 35 | 1016.3 |
| 20260901193042 | 100 | 67 | 1.0 | 10.0 | 0.00 | 0.00 | 0.00 | 34 | 1016.3 |
| 20260901192517 | 100 | 161 | 3.0 | 10.0 | 0.00 | 0.00 | 0.00 | 34 | 1016.3 |
| 20260901192023 | 100 | 46 | 3.0 | 10.0 | 0.00 | 0.00 | 0.00 | 33 | 1016.4 |
| 20260901191539 | 98 | 150 | 2.0 | 10.0 | 0.00 | 0.00 | 0.00 | 35 | 1016.6 |
| 20260901191023 | 98 | 245 | 3.0 | 9.0 | 0.00 | 0.00 | 0.00 | 34 | 1016.6 |
| 20260901190519 | 99 | 191 | 4.0 | 9.0 | 0.00 | 0.00 | 0.00 | 34 | 1016.7 |
| 20260901190100 | 100 | 111 | 3.0 | 11.0 | 0.00 | 0.00 | 0.00 | 33 | 1016.7 |
| 20260901185521 | 100 | 138 | 5.0 | 11.0 | 0.00 | 0.00 | 0.00 | 33 | 1016.8 |
| 20260901185021 | 100 | 170 | 3.0 | 11.0 | 0.00 | 0.00 | 0.00 | 33 | 1016.8 |
| 20260901184541 | 100 | 121 | 3.0 | 11.0 | 0.00 | 0.00 | 0.00 | 33 | 1016.9 |
| 20260901184021 | 99 | 162 | 3.0 | 11.0 | 0.00 | 0.00 | 0.00 | 35 | 1017.0 |
| 20260901183520 | 99 | 173 | 4.0 | 10.0 | 0.00 | 0.00 | 0.00 | 35 | 1017.1 |
| 20260901183040 | 99 | 181 | 2.0 | 10.0 | 0.00 | 0.00 | 0.00 | 36 | 1017.3 |
| 20260901182518 | 99 | 147 | 5.0 | 10.0 | 0.00 | 0.00 | 0.00 | 37 | 1017.5 |
| 20260901182019 | 95 | 133 | 2.0 | 7.0 | 0.00 | 0.00 | 0.00 | 41 | 1017.5 |
| 20260901181543 | 94 | 124 | 1.0 | 8.0 | 0.00 | 0.00 | 0.00 | 41 | 1017.6 |
| 20260901181019 | 97 | 208 | 2.0 | 10.0 | 0.00 | 0.00 | 0.00 | 38 | 1017.7 |
| 20260901180524 | 99 | 121 | 3.0 | 10.0 | 0.00 | 0.00 | 0.00 | 37 | 1017.7 |
| 20260901180040 | 98 | 142 | 3.0 | 10.0 | 0.00 | 0.00 | 0.00 | 37 | 1017.7 |
| 20260901175522 | 98 | 105 | 3.0 | 8.0 | 0.00 | 0.00 | 0.00 | 38 | 1017.8 |
| 20260901175017 | 98 | 154 | 4.0 | 9.0 | 0.00 | 0.00 | 0.00 | 38 | 1017.9 |
| 20260901174544 | 96 | 159 | 4.0 | 9.0 | 0.00 | 0.00 | 0.00 | 41 | 1017.9 |
| 20260901174024 | 96 | 202 | 1.0 | 10.0 | 0.00 | 0.00 | 0.00 | 41 | 1018.0 |
| 20260901173524 | 97 | 117 | 2.0 | 10.0 | 0.00 | 0.00 | 0.00 | 38 | 1018.1 |
| 20260901173042 | 98 | 92 | 4.0 | 10.0 | 0.00 | 0.00 | 0.00 | 39 | 1018.3 |
| 20260901172520 | 97 | 127 | 2.0 | 10.0 | 0.00 | 0.00 | 0.00 | 39 | 1018.2 |
| 20260901172020 | 98 | 191 | 4.0 | 10.0 | 0.00 | 0.00 | 0.00 | 39 | 1018.3 |
| 20260901171543 | 97 | 144 | 2.0 | 7.0 | 0.00 | 0.00 | 0.00 | 40 | 1018.4 |
| 20260901171020 | 97 | 100 | 3.0 | 7.0 | 0.00 | 0.00 | 0.00 | 39 | 1018.3 |
| 20260901170520 | 95 | 157 | 1.0 | 7.0 | 0.00 | 0.00 | 0.00 | 42 | 1018.4 |
| 20260901170043 | 94 | 217 | 2.0 | 7.0 | 0.00 | 0.00 | 0.00 | 43 | 1018.4 |
| 20260901165519 | 95 | 182 | 3.0 | 7.0 | 0.00 | 0.00 | 0.00 | 41 | 1018.5 |
| 20260901165023 | 94 | 168 | 3.0 | 9.0 | 0.00 | 0.00 | 0.00 | 44 | 1018.5 |
| 20260901164545 | 94 | 219 | 4.0 | 9.0 | 0.00 | 0.00 | 0.00 | 43 | 1018.6 |
| 20260901164023 | 93 | 217 | 3.0 | 7.0 | 0.00 | 0.00 | 0.00 | 45 | 1018.7 |
| 20260901163523 | 94 | 193 | 2.0 | 7.0 | 0.00 | 0.00 | 0.00 | 43 | 1018.7 |
| 20260901163043 | 94 | 158 | 3.0 | 7.0 | 0.00 | 0.00 | 0.00 | 43 | 1018.7 |
| 20260901162519 | 92 | 160 | 2.0 | 9.0 | 0.00 | 0.00 | 0.00 | 46 | 1018.7 |
| 20260901162022 | 93 | 251 | 3.0 | 9.0 | 0.00 | 0.00 | 0.00 | 44 | 1018.7 |
| 20260901161541 | 94 | 150 | 4.0 | 9.0 | 0.00 | 0.00 | 0.00 | 44 | 1018.7 |
| 20260901161019 | 93 | 171 | 3.0 | 9.0 | 0.00 | 0.00 | 0.00 | 45 | 1018.7 |
| 20260901160521 | 93 | 115 | 3.0 | 8.0 | 0.00 | 0.00 | 0.00 | 44 | 1018.7 |
| 20260901160040 | 93 | 160 | 3.0 | 8.0 | 0.00 | 0.00 | 0.00 | 45 | 1018.7 |
| 20260901155518 | 92 | 142 | 2.0 | 7.0 | 0.00 | 0.00 | 0.00 | 45 | 1018.6 |
| 20260901155018 | 92 | 117 | 1.0 | 7.0 | 0.00 | 0.00 | 0.00 | 45 | 1018.6 |
| 20260901154540 | 92 | 134 | 2.0 | 8.0 | 0.00 | 0.00 | 0.00 | 46 | 1018.7 |
| 20260901154018 | 91 | 144 | 3.0 | 8.0 | 0.00 | 0.00 | 0.00 | 47 | 1018.7 |
| 20260901153520 | 91 | 148 | 1.0 | 6.0 | 0.00 | 0.00 | 0.00 | 47 | 1018.7 |
| 20260901153043 | 91 | 190 | 2.0 | 6.0 | 0.00 | 0.00 | 0.00 | 48 | 1018.7 |
| 20260901152517 | 91 | 193 | 2.0 | 8.0 | 0.00 | 0.00 | 0.00 | 48 | 1018.7 |
| 20260901152017 | 90 | 0 | 2.0 | 8.0 | 0.00 | 0.00 | 0.00 | 49 | 1018.7 |
| 20260901151542 | 90 | 259 | 2.0 | 7.0 | 0.00 | 0.00 | 0.00 | 49 | 1018.7 |
| 20260901151025 | 90 | 209 | 2.0 | 7.0 | 0.00 | 0.00 | 0.00 | 49 | 1018.6 |
| 20260901150519 | 89 | 150 | 1.0 | 8.0 | 0.00 | 0.00 | 0.00 | 51 | 1018.6 |
| 20260901150040 | 88 | 195 | 2.0 | 8.0 | 0.00 | 0.00 | 0.00 | 51 | 1018.6 |
| 20260901145519 | 88 | 193 | 3.0 | 8.0 | 0.00 | 0.00 | 0.00 | 52 | 1018.7 |
| 20260901145020 | 87 | 215 | 3.0 | 8.0 | 0.00 | 0.00 | 0.00 | 52 | 1018.7 |
| 20260901144537 | 87 | 225 | 3.0 | 9.0 | 0.00 | 0.00 | 0.00 | 53 | 1018.6 |
| 20260901144022 | 86 | 225 | 3.0 | 9.0 | 0.00 | 0.00 | 0.00 | 54 | 1018.6 |
| 20260901143522 | 86 | 198 | 4.0 | 8.0 | 0.00 | 0.00 | 0.00 | 53 | 1018.6 |
| 20260901143038 | 86 | 173 | 3.0 | 7.0 | 0.00 | 0.00 | 0.00 | 54 | 1018.7 |
| 20260901142519 | 85 | 192 | 2.0 | 7.0 | 0.00 | 0.00 | 0.00 | 55 | 1018.6 |
| 20260901142017 | 84 | 157 | 3.0 | 7.0 | 0.00 | 0.00 | 0.00 | 57 | 1018.7 |
| 20260901141536 | 84 | 119 | 1.0 | 7.0 | 0.00 | 0.00 | 0.00 | 58 | 1018.7 |
| 20260901141026 | 84 | 174 | 1.0 | 8.0 | 0.00 | 0.00 | 0.00 | 59 | 1018.6 |
| 20260901140516 | 83 | 215 | 2.0 | 8.0 | 0.00 | 0.00 | 0.00 | 60 | 1018.7 |
| 20260901140035 | 82 | 205 | 3.0 | 8.0 | 0.00 | 0.00 | 0.00 | 62 | 1018.7 |
| 20260901135516 | 81 | 222 | 2.0 | 6.0 | 0.00 | 0.00 | 0.00 | 63 | 1018.7 |
| 20260901135022 | 80 | 181 | 2.0 | 4.0 | 0.00 | 0.00 | 0.00 | 66 | 1018.6 |
| 20260901134539 | 79 | 0 | 1.0 | 4.0 | 0.00 | 0.00 | 0.00 | 67 | 1018.7 |
| 20260901134024 | 78 | 221 | 1.0 | 4.0 | 0.00 | 0.00 | 0.00 | 69 | 1018.7 |
| 20260901133521 | 77 | 150 | 1.0 | 3.0 | 0.00 | 0.00 | 0.00 | 70 | 1018.7 |
| 20260901133043 | 76 | 150 | 0.0 | 2.0 | 0.00 | 0.00 | 0.00 | 72 | 1018.6 |
| 20260901132520 | 75 | 0 | 0.0 | 2.0 | 0.00 | 0.00 | 0.00 | 72 | 1018.6 |
| 20260901132020 | 75 | 150 | 0.0 | 3.0 | 0.00 | 0.00 | 0.00 | 72 | 1018.5 |
| 20260901131535 | 74 | 0 | 0.0 | 3.0 | 0.00 | 0.00 | 0.00 | 72 | 1018.6 |
| 20260901131017 | 74 | 150 | 0.0 | 2.0 | 0.00 | 0.00 | 0.00 | 74 | 1018.5 |
| 20260901130520 | 73 | 0 | 0.0 | 0.0 | 0.00 | 0.00 | 0.00 | 76 | 1018.5 |
| 20260901130038 | 72 | 0 | 0.0 | 0.0 | 0.00 | 0.00 | 0.00 | 77 | 1018.3 |
| 20260901125520 | 72 | 0 | 0.0 | 0.0 | 0.00 | 0.00 | 0.00 | 78 | 1018.3 |
| 20260901125023 | 71 | 0 | 0.0 | 0.0 | 0.00 | 0.00 | 0.00 | 77 | 1018.4 |
| 20260901124538 | 70 | 0 | 0.0 | 0.0 | 0.00 | 0.00 | 0.00 | 76 | 1018.3 |
| 20260901124018 | 70 | 0 | 0.0 | 0.0 | 0.00 | 0.00 | 0.00 | 77 | 1018.2 |
| 20260901123520 | 70 | 0 | 0.0 | 0.0 | 0.00 | 0.00 | 0.00 | 77 | 1018.3 |
| 20260901123035 | 70 | 0 | 0.0 | 0.0 | 0.00 | 0.00 | 0.00 | 77 | 1018.1 |
| 20260901122523 | 69 | 0 | 0.0 | 0.0 | 0.00 | 0.00 | 0.00 | 78 | 1018.1 |
| 20260901122017 | 69 | 0 | 0.0 | 0.0 | 0.00 | 0.00 | 0.00 | 78 | 1018.1 |
| 20260901121538 | 69 | 0 | 0.0 | 0.0 | 0.00 | 0.00 | 0.00 | 78 | 1018.0 |
| 20260901121018 | 69 | 0 | 0.0 | 0.0 | 0.00 | 0.00 | 0.00 | 77 | 1018.0 |
| 20260901120517 | 69 | 0 | 0.0 | 0.0 | 0.00 | 0.00 | 0.00 | 77 | 1018.0 |
| 20260901120047 | 69 | 0 | 0.0 | 0.0 | 0.00 | 0.00 | 0.00 | 78 | 1017.9 |
| 20260901115517 | 69 | 0 | 0.0 | 0.0 | 0.00 | 0.00 | 0.00 | 76 | 1017.9 |
| 20260901115017 | 69 | 0 | 0.0 | 0.0 | 0.00 | 0.00 | 0.00 | 76 | 1017.9 |
| 20260901114537 | 69 | 0 | 0.0 | 0.0 | 0.00 | 0.00 | 0.00 | 75 | 1018.0 |
| 20260901114018 | 69 | 0 | 0.0 | 0.0 | 0.00 | 0.00 | 0.00 | 76 | 1018.0 |
| 20260901113518 | 69 | 0 | 0.0 | 0.0 | 0.00 | 0.00 | 0.00 | 76 | 1018.0 |
| 20260901113051 | 69 | 0 | 0.0 | 0.0 | 0.00 | 0.00 | 0.00 | 75 | 1018.1 |
| 20260901112519 | 70 | 0 | 0.0 | 0.0 | 0.00 | 0.00 | 0.00 | 75 | 1018.1 |
| 20260901112017 | 70 | 0 | 0.0 | 0.0 | 0.00 | 0.00 | 0.00 | 74 | 1018.1 |
| 20260901111539 | 70 | 0 | 0.0 | 0.0 | 0.00 | 0.00 | 0.00 | 74 | 1018.0 |
| 20260901111017 | 71 | 0 | 0.0 | 0.0 | 0.00 | 0.00 | 0.00 | 73 | 1018.0 |
| 20260901110516 | 71 | 0 | 0.0 | 0.0 | 0.00 | 0.00 | 0.00 | 73 | 1018.0 |
| 20260901110039 | 71 | 0 | 0.0 | 0.0 | 0.00 | 0.00 | 0.00 | 73 | 1018.0 |
| 20260901105516 | 71 | 0 | 0.0 | 0.0 | 0.00 | 0.00 | 0.00 | 72 | 1017.9 |
| 20260901105021 | 71 | 0 | 0.0 | 1.0 | 0.00 | 0.00 | 0.00 | 72 | 1018.0 |
| 20260901104544 | 72 | 0 | 0.0 | 1.0 | 0.00 | 0.00 | 0.00 | 70 | 1017.9 |
| 20260901104021 | 72 | 0 | 0.0 | 1.0 | 0.00 | 0.00 | 0.00 | 70 | 1017.9 |
| 20260901103519 | 72 | 0 | 0.0 | 1.0 | 0.00 | 0.00 | 0.00 | 70 | 1017.9 |
| 20260901103039 | 72 | 0 | 0.0 | 1.0 | 0.00 | 0.00 | 0.00 | 70 | 1017.9 |
| 20260901102518 | 73 | 0 | 0.0 | 2.0 | 0.00 | 0.00 | 0.00 | 69 | 1017.8 |
| 20260901102017 | 73 | 0 | 0.0 | 2.0 | 0.00 | 0.00 | 0.00 | 69 | 1017.8 |
| 20260901101548 | 73 | 0 | 0.0 | 2.0 | 0.00 | 0.00 | 0.00 | 68 | 1017.8 |
| 20260901101019 | 73 | 150 | 0.0 | 2.0 | 0.00 | 0.00 | 0.00 | 69 | 1017.7 |
| 20260901100520 | 73 | 150 | 0.0 | 2.0 | 0.00 | 0.00 | 0.00 | 69 | 1017.7 |
| 20260901100038 | 72 | 150 | 0.0 | 2.0 | 0.00 | 0.00 | 0.00 | 69 | 1017.6 |
| 20260901095519 | 72 | 0 | 0.0 | 2.0 | 0.00 | 0.00 | 0.00 | 70 | 1017.7 |
| 20260901095018 | 72 | 150 | 0.0 | 2.0 | 0.00 | 0.00 | 0.00 | 70 | 1017.7 |
| 20260901094540 | 72 | 0 | 0.0 | 2.0 | 0.00 | 0.00 | 0.00 | 71 | 1017.6 |
| 20260901094020 | 72 | 0 | 0.0 | 2.0 | 0.00 | 0.00 | 0.00 | 71 | 1017.7 |
| 20260901093518 | 72 | 150 | 0.0 | 2.0 | 0.00 | 0.00 | 0.00 | 71 | 1017.7 |
| 20260901093048 | 72 | 0 | 0.0 | 2.0 | 0.00 | 0.00 | 0.00 | 71 | 1017.7 |
| 20260901092519 | 72 | 150 | 0.0 | 1.0 | 0.00 | 0.00 | 0.00 | 70 | 1017.7 |
| 20260901092022 | 73 | 0 | 0.0 | 2.0 | 0.00 | 0.00 | 0.00 | 69 | 1017.7 |
| 20260901091543 | 73 | 0 | 0.0 | 2.0 | 0.00 | 0.00 | 0.00 | 69 | 1017.7 |
| 20260901091023 | 72 | 0 | 0.0 | 2.0 | 0.00 | 0.00 | 0.00 | 70 | 1017.7 |
| 20260901090519 | 72 | 150 | 0.0 | 1.0 | 0.00 | 0.00 | 0.00 | 68 | 1017.7 |
| 20260901090040 | 72 | 0 | 0.0 | 1.0 | 0.00 | 0.00 | 0.00 | 68 | 1017.6 |
| 20260901085519 | 72 | 0 | 0.0 | 1.0 | 0.00 | 0.00 | 0.00 | 68 | 1017.7 |
| 20260901085019 | 72 | 0 | 0.0 | 0.0 | 0.00 | 0.00 | 0.00 | 68 | 1017.7 |
| 20260901084542 | 72 | 0 | 0.0 | 0.0 | 0.00 | 0.00 | 0.00 | 67 | 1017.6 |
| 20260901084018 | 72 | 0 | 0.0 | 0.0 | 0.00 | 0.00 | 0.00 | 67 | 1017.6 |
| 20260901083523 | 72 | 0 | 0.0 | 0.0 | 0.00 | 0.00 | 0.00 | 66 | 1017.6 |
| 20260901083042 | 72 | 0 | 0.0 | 0.0 | 0.00 | 0.00 | 0.00 | 66 | 1017.6 |
| 20260901082519 | 72 | 0 | 0.0 | 0.0 | 0.00 | 0.00 | 0.00 | 66 | 1017.6 |
| 20260901082018 | 72 | 0 | 0.0 | 0.0 | 0.00 | 0.00 | 0.00 | 65 | 1017.6 |
| 20260901081537 | 73 | 0 | 0.0 | 0.0 | 0.00 | 0.00 | 0.00 | 64 | 1017.6 |